Time,TemperatureF,DewpointF,PressureIn,WindDirection,WindDirectionDegrees,WindSpeedMPH,WindSpeedGustMPH,Humidity,HourlyPrecipIn,Conditions,Clouds,dailyrainin,SolarRadiationWatts/m^2,SoftwareType,DateUTC
2013-02-22 00:01:00,39.0,37.0,-100.00,WNW,303,4.0,7.0,93,0.00,,,0.58,0.000000,,2013-02-22 06:01:00,
2013-02-22 00:22:00,39.0,37.0,-100.00,WSW,246,3.0,7.0,94,0.00,,,0.58,0.000000,,2013-02-22 06:22:00,
2013-02-22 00:32:00,39.0,37.0,-100.00,WSW,246,3.0,7.0,94,0.00,,,0.58,0.000000,,2013-02-22 06:32:00,
2013-02-22 00:42:00,39.0,37.0,-100.00,WSW,246,3.0,7.0,94,0.00,,,0.58,0.000000,,2013-02-22 06:42:00,
2013-02-22 00:52:00,39.0,37.0,-100.00,WSW,246,3.0,7.0,94,0.00,,,0.58,0.000000,,2013-02-22 06:52:00,
2013-02-22 01:01:00,39.0,37.0,-100.00,WSW,246,3.0,7.0,94,0.00,,,0.58,0.000000,,2013-02-22 07:01:00,
2013-02-22 01:32:00,39.0,37.0,-100.00,NW,308,4.0,6.0,94,0.00,,,0.58,0.000000,,2013-02-22 07:32:00,
2013-02-22 01:42:00,39.0,37.0,-100.00,NW,308,4.0,6.0,94,0.00,,,0.58,0.000000,,2013-02-22 07:42:00,
2013-02-22 01:52:00,39.0,37.0,-100.00,NW,308,4.0,6.0,94,0.00,,,0.58,0.000000,,2013-02-22 07:52:00,
2013-02-22 02:01:00,39.0,37.0,-100.00,NW,308,4.0,6.0,94,0.00,,,0.58,0.000000,,2013-02-22 08:01:00,
2013-02-22 02:02:00,38.0,36.0,-100.00,WNW,285,3.0,6.0,94,0.00,,,0.57,0.000000,,2013-02-22 08:02:00,
2013-02-22 02:32:00,38.0,36.0,-100.00,WNW,285,3.0,6.0,94,0.00,,,0.57,0.000000,,2013-02-22 08:32:00,
2013-02-22 02:42:00,38.0,36.0,-100.00,WNW,285,3.0,6.0,94,0.00,,,0.57,0.000000,,2013-02-22 08:42:00,
2013-02-22 02:52:00,38.0,36.0,-100.00,WNW,285,3.0,6.0,94,0.00,,,0.57,0.000000,,2013-02-22 08:52:00,
2013-02-22 03:22:00,37.0,35.0,-100.00,WNW,298,5.0,9.0,94,0.00,,,0.57,0.000000,,2013-02-22 09:22:00,
2013-02-22 03:32:00,37.0,35.0,-100.00,WNW,298,5.0,9.0,94,0.00,,,0.57,0.000000,,2013-02-22 09:32:00,
2013-02-22 03:42:00,37.0,35.0,-100.00,WNW,298,5.0,9.0,94,0.00,,,0.57,0.000000,,2013-02-22 09:42:00,
2013-02-22 03:52:00,37.0,35.0,-100.00,WNW,298,5.0,9.0,94,0.00,,,0.57,0.000000,,2013-02-22 09:52:00,
2013-02-22 04:01:00,37.0,35.0,-100.00,WNW,298,5.0,9.0,94,0.00,,,0.57,0.000000,,2013-02-22 10:01:00,
2013-02-22 04:32:00,36.0,34.0,-100.00,West,279,2.0,5.0,94,0.00,,,0.55,0.000000,,2013-02-22 10:32:00,
2013-02-22 04:42:00,36.0,34.0,-100.00,West,279,2.0,5.0,94,0.00,,,0.55,0.000000,,2013-02-22 10:42:00,
2013-02-22 04:52:00,36.0,34.0,-100.00,West,279,2.0,5.0,94,0.00,,,0.55,0.000000,,2013-02-22 10:52:00,
2013-02-22 05:01:00,36.0,34.0,-100.00,West,279,2.0,5.0,94,0.00,,,0.55,0.000000,,2013-02-22 11:01:00,
2013-02-22 05:02:00,34.0,32.0,-100.00,WNW,302,4.0,6.0,93,0.00,,,0.54,0.000000,,2013-02-22 11:02:00,
2013-02-22 05:22:00,34.0,32.0,-100.00,WNW,302,4.0,6.0,93,0.00,,,0.54,0.000000,,2013-02-22 11:22:00,
2013-02-22 05:32:00,34.0,32.0,-100.00,WNW,302,4.0,6.0,93,0.00,,,0.54,0.000000,,2013-02-22 11:32:00,
2013-02-22 05:42:00,34.0,32.0,-100.00,WNW,302,4.0,6.0,93,0.00,,,0.54,0.000000,,2013-02-22 11:42:00,
2013-02-22 05:52:00,34.0,32.0,-100.00,WNW,302,4.0,6.0,93,0.00,,,0.54,0.000000,,2013-02-22 11:52:00,
2013-02-22 06:32:00,33.0,31.0,-100.00,WNW,285,4.0,7.0,91,0.00,,,0.54,0.000000,,2013-02-22 12:32:00,
2013-02-22 06:42:00,33.0,31.0,-100.00,WNW,285,4.0,7.0,91,0.00,,,0.54,0.000000,,2013-02-22 12:42:00,
2013-02-22 06:52:00,33.0,31.0,-100.00,WNW,285,4.0,7.0,91,0.00,,,0.54,0.000000,,2013-02-22 12:52:00,
2013-02-22 07:01:00,33.0,31.0,-100.00,WNW,285,4.0,7.0,91,0.00,,,0.54,0.000000,,2013-02-22 13:01:00,
2013-02-22 07:32:00,31.0,29.0,-100.00,West,273,5.0,7.0,91,0.00,,,0.53,1.000000,,2013-02-22 13:32:00,
2013-02-22 07:42:00,31.0,29.0,-100.00,West,273,5.0,7.0,91,0.00,,,0.53,1.000000,,2013-02-22 13:42:00,
2013-02-22 07:52:00,31.0,29.0,-100.00,West,273,5.0,7.0,91,0.00,,,0.53,1.000000,,2013-02-22 13:52:00,
2013-02-22 08:01:00,31.0,29.0,-100.00,West,273,5.0,7.0,91,0.00,,,0.53,1.000000,,2013-02-22 14:01:00,
2013-02-22 08:32:00,33.0,27.0,-100.00,West,278,6.0,9.0,79,0.00,,,0.35,89.000000,,2013-02-22 14:32:00,
2013-02-22 08:42:00,33.0,27.0,-100.00,West,278,6.0,9.0,79,0.00,,,0.35,89.000000,,2013-02-22 14:42:00,
2013-02-22 08:53:00,33.0,27.0,-100.00,West,278,6.0,9.0,79,0.00,,,0.35,89.000000,,2013-02-22 14:53:00,
2013-02-22 09:01:00,33.0,27.0,-100.00,West,278,6.0,9.0,79,0.00,,,0.35,89.000000,,2013-02-22 15:01:00,
2013-02-22 09:32:00,35.0,26.0,-100.00,WNW,301,7.0,12.0,68,0.00,,,0.12,360.000000,,2013-02-22 15:32:00,
2013-02-22 09:42:00,35.0,26.0,-100.00,WNW,301,7.0,12.0,68,0.00,,,0.12,360.000000,,2013-02-22 15:42:00,
2013-02-22 09:52:00,35.0,26.0,-100.00,WNW,301,7.0,12.0,68,0.00,,,0.12,360.000000,,2013-02-22 15:52:00,
2013-02-22 10:01:00,35.0,26.0,-100.00,WNW,301,7.0,12.0,68,0.00,,,0.12,360.000000,,2013-02-22 16:01:00,
2013-02-22 10:32:00,37.0,25.0,-100.00,West,277,5.0,10.0,62,0.00,,,0.10,496.000000,,2013-02-22 16:32:00,
2013-02-22 10:42:00,37.0,25.0,-100.00,West,277,5.0,10.0,62,0.00,,,0.10,496.000000,,2013-02-22 16:42:00,
2013-02-22 10:52:00,37.0,25.0,-100.00,West,277,5.0,10.0,62,0.00,,,0.10,496.000000,,2013-02-22 16:52:00,
2013-02-22 11:01:00,37.0,25.0,-100.00,West,277,5.0,10.0,62,0.00,,,0.10,496.000000,,2013-02-22 17:01:00,
2013-02-22 11:32:00,41.0,25.0,-100.00,WNW,282,6.0,10.0,53,0.00,,,0.04,703.000000,,2013-02-22 17:32:00,
2013-02-22 11:42:00,41.0,25.0,-100.00,WNW,282,6.0,10.0,53,0.00,,,0.04,703.000000,,2013-02-22 17:42:00,
2013-02-22 11:52:00,41.0,25.0,-100.00,WNW,282,6.0,10.0,53,0.00,,,0.04,703.000000,,2013-02-22 17:52:00,
2013-02-22 12:01:00,41.0,25.0,-100.00,WNW,282,6.0,10.0,53,0.00,,,0.04,703.000000,,2013-02-22 18:01:00,
2013-02-22 12:23:00,43.0,24.0,-100.00,NW,308,7.0,11.0,47,0.00,,,0.03,709.000000,,2013-02-22 18:23:00,
2013-02-22 12:32:00,43.0,24.0,-100.00,NW,308,7.0,11.0,47,0.00,,,0.03,709.000000,,2013-02-22 18:32:00,
2013-02-22 12:42:00,43.0,24.0,-100.00,NW,308,7.0,11.0,47,0.00,,,0.03,709.000000,,2013-02-22 18:42:00,
2013-02-22 12:52:00,43.0,24.0,-100.00,NW,308,7.0,11.0,47,0.00,,,0.03,709.000000,,2013-02-22 18:52:00,
2013-02-22 13:01:00,43.0,24.0,-100.00,NW,308,7.0,11.0,47,0.00,,,0.03,709.000000,,2013-02-22 19:01:00,
2013-02-22 13:21:00,47.0,24.0,-100.00,NW,316,6.0,11.0,40,0.00,,,0.00,807.000000,,2013-02-22 19:21:00,
2013-02-22 13:31:00,47.0,24.0,-100.00,NW,316,6.0,11.0,40,0.00,,,0.00,807.000000,,2013-02-22 19:31:00,
2013-02-22 13:42:00,47.0,24.0,-100.00,NW,316,6.0,11.0,40,0.00,,,0.00,807.000000,,2013-02-22 19:42:00,
2013-02-22 13:52:00,47.0,24.0,-100.00,NW,316,6.0,11.0,40,0.00,,,0.00,807.000000,,2013-02-22 19:52:00,
2013-02-22 14:01:00,47.0,24.0,-100.00,NW,316,6.0,11.0,40,0.00,,,0.00,807.000000,,2013-02-22 20:01:00,
2013-02-22 14:32:00,49.0,27.0,-100.00,NW,316,5.0,11.0,42,0.00,,,0.00,647.000000,,2013-02-22 20:32:00,
2013-02-22 14:42:00,49.0,27.0,-100.00,NW,316,5.0,11.0,42,0.00,,,0.00,647.000000,,2013-02-22 20:42:00,
2013-02-22 14:52:00,49.0,27.0,-100.00,NW,316,5.0,11.0,42,0.00,,,0.00,647.000000,,2013-02-22 20:52:00,
2013-02-22 15:01:00,49.0,27.0,-100.00,NW,316,5.0,11.0,42,0.00,,,0.00,647.000000,,2013-02-22 21:01:00,
2013-02-22 15:32:00,50.0,25.0,-100.00,NW,309,6.0,13.0,37,0.00,,,0.00,614.000000,,2013-02-22 21:32:00,
2013-02-22 15:42:00,50.0,25.0,-100.00,NW,309,6.0,13.0,37,0.00,,,0.00,614.000000,,2013-02-22 21:42:00,
2013-02-22 15:52:00,50.0,25.0,-100.00,NW,309,6.0,13.0,37,0.00,,,0.00,614.000000,,2013-02-22 21:52:00,
2013-02-22 16:01:00,50.0,25.0,-100.00,NW,309,6.0,13.0,37,0.00,,,0.00,614.000000,,2013-02-22 22:01:00,
2013-02-22 16:32:00,52.0,26.0,-100.00,NW,304,6.0,12.0,36,0.00,,,0.00,508.000000,,2013-02-22 22:32:00,
2013-02-22 16:42:00,52.0,26.0,-100.00,NW,304,6.0,12.0,36,0.00,,,0.00,508.000000,,2013-02-22 22:42:00,
2013-02-22 16:52:00,52.0,26.0,-100.00,NW,304,6.0,12.0,36,0.00,,,0.00,508.000000,,2013-02-22 22:52:00,
2013-02-22 17:01:00,52.0,26.0,-100.00,NW,304,6.0,12.0,36,0.00,,,0.00,508.000000,,2013-02-22 23:01:00,
2013-02-22 17:32:00,50.0,25.0,-100.00,North,354,4.0,10.0,38,0.00,,,0.00,241.000000,,2013-02-22 23:32:00,
2013-02-22 17:42:00,50.0,25.0,-100.00,North,354,4.0,10.0,38,0.00,,,0.00,241.000000,,2013-02-22 23:42:00,
2013-02-22 17:52:00,50.0,25.0,-100.00,North,354,4.0,10.0,38,0.00,,,0.00,241.000000,,2013-02-22 23:52:00,
2013-02-22 18:01:00,50.0,25.0,-100.00,North,354,4.0,10.0,38,0.00,,,0.00,241.000000,,2013-02-23 00:01:00,
2013-02-22 18:21:00,46.0,28.0,-100.00,NW,318,3.0,10.0,50,0.00,,,0.00,70.000000,,2013-02-23 00:21:00,
2013-02-22 18:32:00,46.0,28.0,-100.00,NW,318,3.0,10.0,50,0.00,,,0.00,70.000000,,2013-02-23 00:32:00,
2013-02-22 18:42:00,46.0,28.0,-100.00,NW,318,3.0,10.0,50,0.00,,,0.00,70.000000,,2013-02-23 00:42:00,
2013-02-22 18:52:00,46.0,28.0,-100.00,NW,318,3.0,10.0,50,0.00,,,0.00,70.000000,,2013-02-23 00:52:00,
2013-02-22 19:01:00,46.0,28.0,-100.00,NW,318,3.0,10.0,50,0.00,,,0.00,70.000000,,2013-02-23 01:01:00,
2013-02-22 19:32:00,42.0,28.0,-100.00,NW,316,3.0,6.0,58,0.00,,,0.00,2.000000,,2013-02-23 01:32:00,
2013-02-22 19:42:00,42.0,28.0,-100.00,NW,316,3.0,6.0,58,0.00,,,0.00,2.000000,,2013-02-23 01:42:00,
2013-02-22 19:52:00,42.0,28.0,-100.00,NW,316,3.0,6.0,58,0.00,,,0.00,2.000000,,2013-02-23 01:52:00,
2013-02-22 20:01:00,42.0,28.0,-100.00,NW,316,3.0,6.0,58,0.00,,,0.00,2.000000,,2013-02-23 02:01:00,
2013-02-22 20:32:00,40.0,28.0,-100.00,WNW,288,3.0,6.0,61,0.00,,,0.00,0.000000,,2013-02-23 02:32:00,
2013-02-22 20:42:00,40.0,28.0,-100.00,WNW,288,3.0,6.0,61,0.00,,,0.00,0.000000,,2013-02-23 02:42:00,
2013-02-22 20:52:00,40.0,28.0,-100.00,WNW,288,3.0,6.0,61,0.00,,,0.00,0.000000,,2013-02-23 02:52:00,
2013-02-22 21:01:00,40.0,28.0,-100.00,WNW,288,3.0,6.0,61,0.00,,,0.00,0.000000,,2013-02-23 03:01:00,
2013-02-22 21:32:00,38.0,27.0,-100.00,NE,52,3.0,9.0,64,0.00,,,0.00,0.000000,,2013-02-23 03:32:00,
2013-02-22 21:42:00,38.0,27.0,-100.00,NE,52,3.0,9.0,64,0.00,,,0.00,0.000000,,2013-02-23 03:42:00,
2013-02-22 21:52:00,38.0,27.0,-100.00,NE,52,3.0,9.0,64,0.00,,,0.00,0.000000,,2013-02-23 03:52:00,
2013-02-22 22:01:00,38.0,27.0,-100.00,NE,52,3.0,9.0,64,0.00,,,0.00,0.000000,,2013-02-23 04:01:00,
2013-02-22 22:02:00,36.0,27.0,-100.00,West,261,2.0,5.0,70,0.00,,,0.00,0.000000,,2013-02-23 04:02:00,
2013-02-22 22:32:00,36.0,27.0,-100.00,West,261,2.0,5.0,70,0.00,,,0.00,0.000000,,2013-02-23 04:32:00,
2013-02-22 22:42:00,36.0,27.0,-100.00,West,261,2.0,5.0,70,0.00,,,0.00,0.000000,,2013-02-23 04:42:00,
2013-02-22 22:52:00,36.0,27.0,-100.00,West,261,2.0,5.0,70,0.00,,,0.00,0.000000,,2013-02-23 04:52:00,
2013-02-22 23:23:00,35.0,24.0,-100.00,WNW,295,2.0,4.0,63,0.00,,,0.00,0.000000,,2013-02-23 05:23:00,
2013-02-22 23:33:00,35.0,24.0,-100.00,WNW,295,2.0,4.0,63,0.00,,,0.00,0.000000,,2013-02-23 05:33:00,
2013-02-22 23:42:00,35.0,24.0,-100.00,WNW,295,2.0,4.0,63,0.00,,,0.00,0.000000,,2013-02-23 05:42:00,
2013-02-22 23:52:00,35.0,24.0,-100.00,WNW,295,2.0,4.0,63,0.00,,,0.00,0.000000,,2013-02-23 05:52:00,